ELECTRON KICK STAGE R/B

Last updated on Sun Apr 12 2026 00:02:09 GMT+0000 (Coordinated Universal Time)

1 68411U 26065D 26101.22275008 .01880050 24788-5 11594-2 0 9993 2 68411 97.4060 344.6115 0100485 337.0769 22.6042 16.07323797 2200

Satellite not in orbit

ELECTRON KICK STAGE R/B